Location: Curupao
(10.4996°N, 66.6442°W)
Time: 20:56:28
(UTC+00:00)

Cosmos 1943 Rocket - Pass Details

Date: 23 May 2024
Orbit: 810 x 844 km, 71.0° (Epoch: 22 June)

Event Time Altitude Azimuth Distance (km) Brightness Sun altitude
Rises 00:43:44 0° 350° (N) 3,377 5.9 -27.7°
Reaches altitude 10° 00:46:12 10° 353° (N) 2,439 5.0 -28.2°
Enters shadow 00:50:22 48° 19° (NNE) 1,080 2.7 -29.1°
